Location: Unspecified
(0.0000°N, 0.0000°E)
Time: 22:28:50
(UTC+00:00)

N. Korean satellite - Pass Details

Date: 04 August 2021
Orbit: 449 x 498 km, 97.3° (Epoch: 25 September)

Event Time Altitude Azimuth Distance (km) Brightness Sun altitude
Rises 04:15:31 0° 37° (NE) 2,466 11.0 -26.3°
Reaches altitude 10° 04:18:04 10° 58° (ENE) 1,588 10.1 -25.7°
Maximum altitude 04:20:21 17° 101° (E) 1,215 9.2 -25.2°
Drops below altitude 10° 04:22:38 10° 144° (SE) 1,582 9.3 -24.6°
Enters shadow 04:23:18 - 151° (SSE) 1,781 9.5 -24.5°
